Weather History for Crestview, FL

Change the Weather History Date:

Friday, September 13, 2013

  Actual Average Record
Temperature  
Mean Temperature 80 °F -  
Max Temperature 93 °F - - ()
Min Temperature 68 °F - - ()
Cooling Degree Days 15    
Growing Degree Days 30 (Base 50)    
Moisture  
Dew Point 70 °F    
Average Humidity 74    
Maximum Humidity 99    
Minimum Humidity 40    
Precipitation  
Precipitation 0.00 in - - ()
Sea Level Pressure  
Sea Level Pressure 29.89 in    
Wind  
Wind Speed 3 mph (West)    
Max Wind Speed 8 mph    
Max Gust Speed -    
Visibility 10 miles    
Events      
T = Trace of Precipitation, MM = Missing Value Source: NWS Daily Summary

Daily Weather History Graph

Daily Weather History Graph

Search for Another Location

Airport:

Trip Planner

Search our weather history database for the weather conditions in past years. The results will help you decide how hot, cold, wet, or windy it might be!

Date:

Astronomy

Sep. 13, 2013 Rise Set
Actual Time 6:29 AM CDT 6:53 PM CDT
Civil Twilight 6:05 AM CDT 7:17 PM CDT
Nautical Twilight 5:36 AM CDT 7:46 PM CDT
Astronomical Twilight 5:08 AM CDT 8:14 PM CDT
Moon 2:26 PM CDT (9/13) 12:16 AM CDT (9/13)
Length of Visible Light 13h 12m
Length of Day
12h 24m
First Quarter, 61% of the Moon is Illuminated
Sep 13
First Quarter
Sep 19
Full
Sep 26
Last Quarter
Oct 4
New
Oct 11
First Quarter

Hourly Weather History & Observations

Time (CDT) Temp. Heat Index Dew Point Humidity Pressure Visibility Wind Dir Wind Speed Gust Speed Precip Events Conditions
12:58 AM 72.5 °F - 71.2 °F 96% 29.94 in 10.0 mi Calm Calm - N/A   Clear
1:58 AM 72.0 °F - 70.5 °F 95% 29.92 in 10.0 mi Calm Calm - N/A   Clear
2:58 AM 71.8 °F - 70.2 °F 95% 29.91 in 10.0 mi NW 2.3 mph - N/A   Clear
3:58 AM 70.5 °F - 70.0 °F 98% 29.91 in 10.0 mi WNW 1.2 mph - N/A   Clear
4:58 AM 69.6 °F - 69.4 °F 99% 29.91 in 10.0 mi Calm Calm - N/A   Clear
5:58 AM 68.4 °F - 68.2 °F 99% 29.91 in 10.0 mi NW 2.3 mph - N/A   Clear
6:58 AM 69.1 °F - 68.7 °F 99% 29.91 in 10.0 mi Calm Calm - N/A   Clear
7:58 AM 74.7 °F - 72.0 °F 91% 29.93 in 10.0 mi NW 5.8 mph - N/A   Clear
8:55 AM 78.8 °F - 71.8 °F 79% 29.94 in 10.0 mi Variable 4.6 mph - N/A   Partly Cloudy
9:55 AM 83.5 °F 87.7 °F 70.2 °F 64% 29.92 in 10.0 mi NNW 6.9 mph - N/A   Partly Cloudy
10:55 AM 86.7 °F 90.6 °F 68.7 °F 55% 29.94 in 10.0 mi West 5.8 mph - N/A   Partly Cloudy
11:55 AM 89.2 °F 92.8 °F 67.6 °F 49% 29.91 in 10.0 mi NNW 6.9 mph - N/A   Scattered Clouds
12:55 PM 90.7 °F 94.1 °F 67.1 °F 46% 29.89 in 10.0 mi WNW 5.8 mph - N/A   Scattered Clouds
1:55 PM 91.8 °F 94.6 °F 66.6 °F 43% 29.87 in 10.0 mi NW 6.9 mph - N/A   Scattered Clouds
2:55 PM 92.3 °F 94.3 °F 64.6 °F 40% 29.84 in 10.0 mi Variable 1.2 mph - N/A   Scattered Clouds
3:55 PM 92.1 °F 94.8 °F 65.7 °F 42% 29.81 in 10.0 mi Variable 3.5 mph - N/A   Scattered Clouds
4:55 PM 88.7 °F 93.9 °F 70.2 °F 54% 29.82 in 10.0 mi WSW 5.8 mph - N/A   Scattered Clouds
5:55 PM 87.8 °F 93.4 °F 71.1 °F 57% 29.82 in 10.0 mi SW 8.1 mph - N/A   Scattered Clouds
6:55 PM 84.2 °F 89.9 °F 72.1 °F 67% 29.82 in 10.0 mi SSW 8.1 mph - N/A   Mostly Cloudy
7:55 PM 81.3 °F 85.8 °F 72.0 °F 73% 29.85 in 10.0 mi SSW 3.5 mph - N/A   Mostly Cloudy
8:55 PM 80.6 °F 84.4 °F 71.4 °F 73% 29.86 in 10.0 mi SW 4.6 mph - N/A   Mostly Cloudy
9:55 PM 80.2 °F 84.0 °F 71.8 °F 75% 29.87 in 10.0 mi West 4.6 mph - N/A   Mostly Cloudy
10:55 PM 75.6 °F - 71.8 °F 88% 29.87 in 10.0 mi Calm Calm - N/A   Mostly Cloudy
11:55 PM 74.3 °F - 71.6 °F 91% 29.87 in 10.0 mi Calm Calm - N/A   Scattered Clouds